Home   Weather   Hereford   Past weeks

Flag for USA Past Weather in Hereford, Texas, USA — Yesterday and Last 2 Weeks

Now
55 °F

Clear.


Feels Like: 54 °F
Forecast: 51 / 76 °F
Wind: 7 mph from East

Location: Clovis Municipal

Current Time: Sep 29, 2016 at 3:32:18 AM

Latest Report: Sep 29, 2016 at 2:55 AM


Visibility: 10 mi

Pressure: 30.34 "Hg (26.39 "Hg at 1167m altitude)

Humidity: 67%

Dew Point: 45 °F

Location of HerefordLocation

Past Weather in Hereford — Graph

°F

Hereford Temperature Yesterday

Maximum temperature yesterday: 82 °F (at 3:35 PM)
Minimum temperature yesterday: 48 °F (at 2:15 AM)
Average temperature yesterday: 65 °F

High & Low Weather Summary for the Past Weeks

 TemperatureHumidityPressure
High90 °F (Sep 19, 4:35 PM)94% (Sep 15, 1:35 AM)30.44 "Hg (Sep 15, 1:35 AM)
Low45 °F (Sep 26, 3:35 AM)19% (Sep 18, 4:35 PM)29.90 "Hg (Sep 23, 4:55 PM)
Average66 °F61%30.16 "Hg
* Reported Sep 14 2:15 AM — Sep 29 2:35 AM, Hereford, Weather by CustomWeather, © 2016

Note: Actual official high and low records may vary slightly from our data, if they occured in-between our weather recording intervals... More about our weather records

Advertising

Hereford Weather History for the Previous 24 Hours

Scroll right to see more
 ConditionsComfort  
Time TempWeatherWind HumidityBarometerVisibility
2:35 AM
Thu, Sep 29
55 °FClear.6 mph67%30.34 "Hg10 mi
2:15 AM55 °FClear.9 mph67%30.33 "Hg10 mi
1:55 AM55 °FClear.8 mph63%30.33 "Hg10 mi
1:35 AM55 °FClear.6 mph63%30.32 "Hg10 mi
1:15 AM55 °FClear.7 mph63%30.32 "Hg10 mi
12:55 AM55 °FClear.7 mph63%30.32 "Hg10 mi
12:35 AM55 °FClear.6 mph67%30.32 "Hg10 mi
12:15 AM55 °FClear.6 mph67%30.32 "Hg10 mi
11:55 PM
Wed, Sep 28
55 °FClear.8 mph67%30.31 "Hg10 mi
11:35 PM57 °FClear.8 mph63%30.31 "Hg10 mi
11:15 PM55 °FClear.6 mph67%30.31 "Hg10 mi
10:55 PM61 °FClear.No wind55%30.30 "Hg10 mi
10:35 PM63 °FClear.No wind52%30.29 "Hg10 mi
10:15 PM63 °FClear.No wind52%30.29 "Hg10 mi
9:55 PM64 °FClear.No wind49%30.28 "Hg10 mi
9:35 PM66 °FClear.No wind46%30.27 "Hg10 mi
9:15 PM64 °FClear.No wind52%30.26 "Hg7 mi
8:55 PM70 °FClear.3 mph40%30.26 "Hg10 mi
8:35 PM68 °FClear.3 mph43%30.25 "Hg10 mi
8:15 PM66 °FClear.3 mph52%30.24 "Hg10 mi
7:55 PM70 °FClear.5 mph40%30.24 "Hg10 mi
7:35 PM73 °FSunny.6 mph36%30.24 "Hg10 mi
7:15 PM73 °FSunny.5 mph38%30.24 "Hg10 mi
6:55 PM77 °FSunny.6 mph34%30.23 "Hg10 mi
6:35 PM79 °FSunny.6 mph28%30.23 "Hg10 mi
6:15 PM81 °FSunny.7 mph26%30.23 "Hg10 mi
5:55 PM81 °FSunny.8 mph24%30.23 "Hg10 mi
5:35 PM82 °FSunny.5 mph23%30.22 "Hg8 mi
5:15 PM82 °FSunny.9 mph21%30.22 "Hg10 mi
4:55 PM82 °FSunny.6 mph25%30.22 "Hg10 mi
4:35 PM82 °FSunny.13 mph25%30.22 "Hg10 mi
4:15 PM82 °FSunny.8 mph25%30.22 "Hg10 mi
3:55 PM82 °FSunny.7 mph23%30.22 "Hg10 mi
3:35 PM82 °FSunny.6 mph21%30.22 "Hg10 mi
3:15 PM81 °FSunny.8 mph24%30.22 "Hg10 mi
2:55 PM81 °FSunny.9 mph24%30.23 "Hg10 mi
2:35 PM81 °FSunny.No wind23%30.24 "Hg10 mi
2:15 PM81 °FSunny.7 mph24%30.24 "Hg10 mi
1:55 PM81 °FSunny.6 mph26%30.25 "Hg10 mi
1:35 PM79 °FSunny.No wind24%30.25 "Hg9 mi
1:15 PM79 °FSunny.3 mph24%30.25 "Hg9 mi
12:55 PM79 °FSunny.No wind24%30.25 "Hg5 mi
12:35 PM79 °FSunny.5 mph24%30.26 "Hg10 mi
12:15 PM79 °FSunny.8 mph24%30.26 "Hg10 mi
11:55 AM77 °FSunny.No wind26%30.26 "Hg10 mi
11:35 AM75 °FSunny.No wind27%30.26 "Hg10 mi
11:15 AM75 °FSunny.5 mph29%30.26 "Hg10 mi
10:55 AM73 °FSunny.7 mph36%30.25 "Hg10 mi
10:35 AM72 °FSunny.8 mph38%30.25 "Hg10 mi
10:15 AM70 °FSunny.8 mph40%30.24 "Hg10 mi
9:55 AM66 °FSunny.9 mph46%30.24 "Hg10 mi
9:35 AM63 °FSunny.9 mph52%30.24 "Hg10 mi
9:15 AM59 °FSunny.8 mph59%30.23 "Hg10 mi
8:55 AM55 °FSunny.8 mph59%30.22 "Hg10 mi
8:35 AM52 °FSunny.9 mph62%30.22 "Hg10 mi
8:15 AM50 °FSunny.8 mph67%30.21 "Hg10 mi
7:55 AM48 °FSunny.8 mph71%30.20 "Hg10 mi
7:35 AM48 °FClear.7 mph71%30.19 "Hg10 mi
7:15 AM50 °FClear.8 mph71%30.18 "Hg10 mi
6:55 AM50 °FClear.10 mph71%30.18 "Hg10 mi
6:35 AM50 °FClear.8 mph71%30.18 "Hg10 mi
6:15 AM50 °FClear.9 mph67%30.18 "Hg10 mi
5:55 AM50 °FClear.8 mph67%30.18 "Hg10 mi
5:35 AM50 °FClear.8 mph67%30.17 "Hg10 mi
5:15 AM50 °FClear.9 mph62%30.17 "Hg10 mi
4:55 AM50 °FClear.9 mph62%30.17 "Hg10 mi
4:35 AM52 °FClear.7 mph58%30.17 "Hg10 mi
4:15 AM52 °FClear.9 mph58%30.17 "Hg10 mi
3:55 AM52 °FClear.8 mph58%30.17 "Hg10 mi
3:35 AM52 °FClear.8 mph62%30.17 "Hg10 mi
3:15 AM54 °FClear.8 mph58%30.17 "Hg10 mi
Weather by CustomWeather, © 2016

See weather overviewHow to use our weather pages